EW6829 Weather Reports


time (UTC)temp
C
wind
direction
speed
KPH
gust
KPH
rain 1hr
cm
rain 24hr
cm
rain mn
cm
humidity
%
barometer
mb
20260503180028 13 277 0.0 8.0 0.00 0.00 0.00 76 1013.2
20260503174527 14 236 0.0 4.8 0.00 0.00 0.00 78 1013.3
20260503173028 13 143 0.0 1.6 0.00 0.00 0.00 79 1013.1
20260503171522 13 117 0.0 4.8 0.00 0.00 0.00 80 1013.0
20260503110106 11 217 0.0 0.0 0.00 0.00 0.00 92 1010.9
20260503081536 11 198 0.0 1.6 0.00 0.00 0.00 91 1011.5
20260503071545 11 176 0.0 0.0 0.00 0.00 0.00 91 1011.8
20260503054534 11 197 0.0 1.6 0.00 0.00 0.00 89 1012.2
20260503053033 11 214 0.0 0.0 0.00 0.00 0.00 89 1012.2
20260503051528 11 214 0.0 1.6 0.00 0.00 0.00 89 1012.2
20260503050036 11 168 0.0 3.2 0.00 0.00 0.00 88 1012.2
20260503044530 11 193 0.0 0.0 0.00 0.00 0.00 88 1012.2
20260503043030 11 275 0.0 1.6 0.00 0.00 0.00 87 1012.2
20260503041535 11 207 0.0 1.6 0.00 0.00 0.00 87 1012.0
20260503040025 11 179 0.0 0.0 0.00 0.00 0.00 86 1011.9
20260503034526 11 138 0.0 1.6 0.00 0.00 0.00 86 1011.6
20260503033024 11 117 0.0 1.6 0.00 0.00 0.00 85 1011.5
20260503031524 11 129 0.0 1.6 0.00 0.00 0.00 84 1011.4
20260503030024 11 326 0.0 4.8 0.00 0.00 0.00 84 1011.4
20260503024522 12 121 0.0 6.4 0.00 0.00 0.00 84 1011.5
20260503023021 12 274 0.0 3.2 0.00 0.00 0.00 83 1011.4
20260503021524 12 145 0.0 3.2 0.00 0.00 0.00 82 1011.5
20260503020022 12 237 0.0 4.8 0.00 0.00 0.00 81 1011.6
20260503014519 12 262 0.0 6.4 0.00 0.00 0.00 81 1011.7
20260503013018 12 126 0.0 3.2 0.00 0.00 0.00 80 1011.7
20260503011518 13 134 0.0 8.0 0.00 0.00 0.00 79 1011.8
20260503010021 13 129 0.0 4.8 0.00 0.00 0.00 78 1011.8
20260503004516 13 134 0.0 6.4 0.00 0.00 0.00 77 1011.8
20260503003015 13 330 0.0 8.0 0.00 0.00 0.00 77 1011.8
20260503001514 14 257 0.0 6.4 0.00 0.00 0.00 76 1011.9
20260503000014 15 75 1.6 6.4 0.00 0.00 0.00 75 1011.9
20260502234522 15 287 0.0 8.0 0.00 0.00 0.00 73 1011.9
20260502233012 15 131 0.0 6.4 0.00 0.00 0.00 74 1012.0
20260502231511 15 147 1.6 4.8 0.00 0.00 0.00 73 1012.1
20260502230019 15 139 0.0 4.8 0.00 0.00 0.00 74 1012.3
20260502224510 15 129 0.0 6.4 0.00 0.00 0.00 76 1012.4
20260502223010 15 117 0.0 6.4 0.00 0.00 0.00 77 1012.5
20260502221509 15 118 0.0 8.0 0.00 0.00 0.00 78 1012.7
20260502220009 15 265 0.0 8.0 0.00 0.00 0.00 78 1012.7
20260502214508 15 124 1.6 6.4 0.00 0.00 0.00 78 1012.9
20260502213008 15 195 0.0 4.8 0.00 0.00 0.00 78 1012.8
20260502211508 15 192 1.6 6.4 0.00 0.00 0.00 78 1013.2
20260502210008 15 113 1.6 6.4 0.00 0.00 0.00 79 1013.2
20260502204506 15 108 0.0 11.3 0.00 0.00 0.00 79 1013.1
20260502203006 15 266 0.0 4.8 0.00 0.00 0.00 79 1013.3
20260502201504 15 96 1.6 8.0 0.00 0.00 0.00 80 1013.4
20260502200003 15 136 1.6 6.4 0.00 0.00 0.00 78 1013.4
20260502194504 16 134 0.0 4.8 0.00 0.00 0.00 77 1013.4
20260502193006 16 93 0.0 6.4 0.00 0.00 0.00 77 1013.4
20260502191502 16 248 0.0 9.7 0.00 0.00 0.00 77 1013.6
20260502190002 16 133 0.0 4.8 0.00 0.00 0.00 76 1013.5
20260502184604 16 174 0.0 3.2 0.00 0.00 0.00 77 1013.5
20260502183111 15 181 0.0 3.2 0.00 0.00 0.00 77 1013.5
20260502181553 15 155 0.0 1.6 0.00 0.00 0.00 81 1013.5